Погода в Центральном

Россия / Кемеровская область (Кузбасс)     55°12′32″N   87°38′46″E
темп.,
°C
ветер,
м/с
пор.,
м/с
влажн.,
%
обл.,
%
осадки,
мм/ч
давл.,
гПа
погр.,
м
25 января, вт
вт2501:00−17ю249980 0.1 103977
04:00−20ю2410095 0.0 103842
07:00−20ю2410094 0.0 103753
10:00−17ююз2699100 0.0 1035163
13:00−14ююз3994100 0.3 1033390
16:00−14ююз3994100 0.6 1032418
19:00−15ююз31096100 1.1 1032422
22:00−14ююз31096100 0.4 1033424
26 января, ср
ср2601:00−14ююз31095100 0.8 1032467
04:00−15ю31095100 0.3 1032401
07:00−15ю3996100 0.3 1031381
10:00−14ю2996100 0.0 1031379
13:00−12ююз3891100 0.3 1029450
16:00−11ююз2792100 0.3 1029480
19:00−14ю2497100 0.5 103093
22:00−13ююз2796100 0.4 1031399
27 января, чт
чт2701:00−14ююз2696100 0.7 1032244
04:00−15ююз2597100 0.3 1033115
07:00−14ююз2796100 0.6 1034363
10:00−15ююз2398100 0.3 1036100
13:00−13юз3790100 0.6 1036613
16:00−13юз3692100 0.3 1037597
19:00−17ю1198100 0.5 103918
22:00−17ююв2298100 0.1 103935
28 января, пт
пт2801:00−18ююв229995 0.3 103930
04:00−22юв2210076 0.0 104011
07:00−24юв2210092 0.1 104111
10:00−24юв2210094 0.0 104116
13:00−13ю138853 0.0 1037313
16:00−12ю128981 0.0 1036243
19:00−22юв1110019 0.0 10399
22:00−24юв2210081 0.0 103910
29 января, сб
сб2901:00−25юв2110096 0.0 103910
04:00−26вюв2110094 0.0 103910
07:00−23юв2199100 0.0 103712
10:00−20юв1195100 0.0 103615
13:00−11юз0181100 0.0 1034239
16:00−10зсз00868 0.0 1033286
19:00−20вюв1110014 0.0 10379
22:00−22юв2110051 0.0 10379